This is the latest recevied weather packets stored in our database for station/object OH6GKW. If no packets are shown the sender has not sent any weather packets the latest 10 day(s).
| Time | Temp. | Humidity | Pressure | Rain* | Wind** | Luminosity | Snow |
|---|---|---|---|---|---|---|---|
| 1777452816 | 6.11° C | 49% | 1023.4 hPa | 0 mm | - | 633 W/m² | - |
| 1777452528 | 5.56° C | 48% | 1023.4 hPa | 0 mm | - | 630 W/m² | - |
| 1777452221 | 6.11° C | 48% | 1023.4 hPa | 0 mm | - | 625 W/m² | - |
| 1777451913 | 6.11° C | 48% | 1023.4 hPa | 0 mm | - | 621 W/m² | - |
| 1777451639 | 6.11° C | 48% | 1023.4 hPa | 0 mm | - | 616 W/m² | - |
| 1777451326 | 6.11° C | 48% | 1023.5 hPa | 0 mm | - | 611 W/m² | - |
| 1777451017 | 5.56° C | 46% | 1023.5 hPa | 0 mm | - | 607 W/m² | - |
| 1777450712 | 5.56° C | 47% | 1023.5 hPa | 0 mm | - | 602 W/m² | - |
| 1777450425 | 5.56° C | 48% | 1023.6 hPa | 0 mm | - | 598 W/m² | - |
| 1777450117 | 5.56° C | 48% | 1023.6 hPa | 0 mm | - | 589 W/m² | - |
| 1777449815 | 5.56° C | 49% | 1023.6 hPa | 0 mm | - | 581 W/m² | - |
| 1777449526 | 5° C | 50% | 1023.6 hPa | 0 mm | - | 574 W/m² | - |
| 1777449219 | 5° C | 50% | 1023.6 hPa | 0 mm | - | 570 W/m² | - |
| 1777448912 | 5° C | 48% | 1023.6 hPa | 0 mm | - | 558 W/m² | - |
| 1777448636 | 5° C | 49% | 1023.7 hPa | 0 mm | - | 538 W/m² | - |
| 1777448330 | 4.44° C | 48% | 1023.7 hPa | 0 mm | - | 528 W/m² | - |
| 1777448024 | 4.44° C | 49% | 1023.7 hPa | 0 mm | - | 514 W/m² | - |
| 1777447718 | 4.44° C | 51% | 1023.8 hPa | 0 mm | - | 521 W/m² | - |
| 1777447411 | 4.44° C | 49% | 1023.8 hPa | 0 mm | - | 531 W/m² | - |
| 1777447119 | 4.44° C | 52% | 1023.8 hPa | 0 mm | - | 528 W/m² | - |
| 1777446812 | 4.44° C | 52% | 1023.9 hPa | 0 mm | - | 512 W/m² | - |
| 1777446535 | 3.89° C | 53% | 1023.9 hPa | 0 mm | - | 509 W/m² | - |
| 1777446233 | 3.89° C | 54% | 1023.9 hPa | 0 mm | - | 496 W/m² | - |
| 1777445927 | 3.89° C | 55% | 1023.9 hPa | 0 mm | - | 491 W/m² | - |
| 1777445620 | 3.89° C | 57% | 1023.9 hPa | 0 mm | - | 477 W/m² | - |
* Rain since midnight (hover to see other rain measurements)
** Current wind speed in m/s (hover to see current wind gust speed)